Inquirer Daily News

Weather

Get conditions and forecasts for any City, State, ZIP code or Country:  
Northeast Philadelphia, PA
on Monday, December 17, 2012

Monday
Previous Day Next Day
Daily Summary
 ActualAverage (KTTN)Record (KTTN)
Temperature
Mean Temperature °F 35°F  
Max Temperature 45°F 42°F 66°F (2000)
Min Temperature 42°F 27°F 2°F (1919)
Degree Days
Heating Degree Days 22 30  
Month to date heating degree days 469  
Since 1 July heating degree days 1445  
Cooling Degree Days 0 0  
Month to date cooling degree days 0  
Year to date cooling degree days 965  
Moisture
Dew Point 43°F   
Average Humidity 97    
Maximum Humidity 100    
Minimum Humidity 93    
Precipitation
Precipitation 0.04 in 0.11 in 0.86 in (2000)
Month to date precipitation 2.28  
Year to date precipitation 45.02  
Wind
Wind Speed 7 mph   
Max Wind Speed 12 mph   
Max Gust Speed mph   
Visibility 2 miles   
Events Rain   

Key: T is trace of precipitation, MM is missing value
Source: NWS Daily Summary
Time(EST)TemperatureDew PointHumidity Pressure Visibility Wind DirectionWind SpeedGust SpeedPrecipitationEvents Conditions
12:54 AM 45.0°F 44.1°F 97% 29.91 in 3.0 miles Calm Calm - 0.00 in Rain Light Rain
1:09 AM 44.6°F 44.6°F 100% 29.90 in 2.5 miles NE 4.6 mph - 0.00 in Rain Light Rain
1:54 AM 45.0°F 44.1°F 97% 29.90 in 2.5 miles NNE 5.8 mph - 0.01 in   Overcast
2:03 AM 44.6°F 44.6°F 100% 29.89 in 3.0 miles NNE 9.2 mph - N/A   Overcast
2:54 AM 45.0°F 44.1°F 97% 29.86 in 5.0 miles East 11.5 mph - N/A   Overcast
3:54 AM 45.0°F 44.1°F 97% 29.86 in 4.0 miles ENE 9.2 mph - N/A   Overcast
4:36 AM 44.6°F 44.6°F 100% 29.86 in 2.5 miles ENE 6.9 mph - N/A   Overcast
4:54 AM 45.0°F 44.1°F 97% 29.88 in 2.5 miles NNE 6.9 mph - N/A   Overcast
5:26 AM 44.6°F 44.6°F 100% 29.87 in 1.8 miles ENE 8.1 mph - N/A   Overcast
5:54 AM 44.1°F 43.0°F 96% 29.87 in 1.8 miles NE 10.4 mph - N/A   Overcast
6:02 AM 44.6°F 42.8°F 93% 29.86 in 2.0 miles NE 8.1 mph - N/A   Overcast
6:40 AM 42.8°F 42.8°F 100% 29.88 in 3.0 miles NE 11.5 mph - N/A   Overcast
6:54 AM 43.0°F 42.1°F 97% 29.88 in 3.0 miles NE 8.1 mph - N/A   Overcast
7:54 AM 42.1°F 41.0°F 96% 29.88 in 3.0 miles NE 10.4 mph - N/A   Overcast
8:09 AM 42.8°F 41.0°F 93% 29.88 in 2.0 miles NE 11.5 mph - N/A   Overcast
8:38 AM 42.8°F 41.0°F 93% 29.88 in 1.5 miles NE 9.2 mph - N/A   Overcast
8:54 AM 42.1°F 41.0°F 96% 29.88 in 1.2 miles ENE 10.4 mph - N/A   Overcast
9:06 AM 42.8°F 41.0°F 93% 29.89 in 1.2 miles NNE 6.9 mph - N/A   Overcast
9:54 AM 42.1°F 41.0°F 96% 29.90 in 1.8 miles NE 6.9 mph - N/A   Overcast
10:46 AM 42.8°F 42.8°F 100% 29.89 in 2.0 miles NNE 5.8 mph - N/A   Overcast
10:54 AM 43.0°F 42.1°F 97% 29.89 in 2.0 miles ENE 6.9 mph - N/A   Overcast
11:54 AM 44.1°F 42.1°F 93% 29.86 in 2.0 miles ENE 10.4 mph - N/A   Overcast
12:54 PM 44.1°F 42.1°F 93% 29.85 in 2.0 miles ENE 8.1 mph - N/A   Overcast
1:54 PM 45.0°F 43.0°F 93% 29.83 in 2.0 miles ENE 9.2 mph - N/A   Overcast
2:54 PM 45.0°F 43.0°F 93% 29.80 in 2.0 miles ENE 5.8 mph - N/A   Overcast
3:54 PM 45.0°F 43.0°F 93% 29.80 in 2.0 miles ENE 6.9 mph - N/A   Overcast
4:54 PM 45.0°F 44.1°F 97% 29.79 in 1.8 miles ENE 8.1 mph - N/A   Overcast
7:54 PM 44.1°F 43.0°F 96% 29.72 in 1.2 miles ENE 10.4 mph - N/A   Overcast
8:54 PM 44.1°F 44.1°F 100% 29.70 in 1.8 miles ENE 5.8 mph - N/A   Overcast
9:54 PM 45.0°F 44.1°F 97% 29.69 in 1.5 miles East 4.6 mph - 0.01 in   Overcast
10:54 PM 45.0°F 44.1°F 97% 29.65 in 1.8 miles East 4.6 mph - 0.01 in Rain Light Rain
11:06 PM 44.6°F 44.6°F 100% 29.64 in 2.5 miles East 4.6 mph - 0.00 in   Overcast
11:34 PM 44.6°F 44.6°F 100% 29.62 in 1.8 miles East 6.9 mph - 0.01 in   Overcast
11:54 PM 45.0°F 45.0°F 100% 29.60 in 1.5 miles East 6.9 mph - 0.01 in Rain Light Rain
Astronomy
Sunrise:07:16 AM (EST) Moon Rise:10:23 AM (EST)12/17
Sunset:04:36 PM (EST) Moon Set:09:55 PM (EST)12/17
Moon Phase
Dec. 17 Dec. 20 Dec. 28 Jan. 04 Jan. 11

Copyright © 2014 The Weather Underground, Inc.